Cosmos 1190 Rocket - Orbit

View from above orbital plane
View from above orbital plane
View from above satellite
View from above satellite

Ground track
Ground track

The orbit data is extracted from the following two-line orbital elements,

1 11870U 80056B   13169.14611859  .00000034  00000-0  20562-4 0  4543
2 11870 074.0535 008.0453 0017103 321.6707 170.3917 14.36306639725149
Epoch (UTC): 18 June 2013 03:30:24
Eccentricity: 0.0017103
inclination: 74.0535°
perigee height: 758 km
apogee height: 783 km
right ascension of ascending node: 8.0453°
argument of perigee: 321.6707°
revolutions per day: 14.36306639
mean anomaly at epoch: 170.3917°
orbit number at epoch: 72514

The dashed part of the orbit path shows where the satellite is in the earth's shadow,  

Developed and maintained by Chris Peat, Heavens-Above GmbH. Please read the updated FAQ before sending e-mail. Imprint. DLR